EZY85PG EGCC-EGNH

Flight info

Callsign EZY85PG
Flight time 0h 18m
Altitude 8000
Route EKLAD
Aircraft A320/M-SDE3FGHIRWY/LB1

Departure

Time 2026-04-17 10:12
Airport Manchester Airport (EGCC)

Arrival

Time 2026-04-17 10:31
Airport Blackpool Airport (EGNH)
Time Latitude Longitude Altitude Speed Heading
2026-04-17 09:52 53.36169 -2.27695 245 ft 0 kts 16°
2026-04-17 10:04 53.36157 -2.27701 245 ft 2 kts 16°
2026-04-17 10:04 53.36142 -2.27709 245 ft 2 kts 16°
2026-04-17 10:04 53.36126 -2.27716 245 ft 2 kts 16°
2026-04-17 10:04 53.36111 -2.27724 245 ft 2 kts 16°
2026-04-17 10:05 53.36095 -2.27731 244 ft 2 kts 20°
2026-04-17 10:05 53.36085 -2.27741 244 ft 0 kts 86°
2026-04-17 10:05 53.36084 -2.27722 244 ft 2 kts 98°
2026-04-17 10:05 53.36082 -2.27704 245 ft 0 kts 102°
2026-04-17 10:06 53.36081 -2.27700 244 ft 0 kts 102°
2026-04-17 10:07 53.36081 -2.27699 244 ft 1 kts 102°
2026-04-17 10:07 53.36079 -2.27683 245 ft 3 kts 102°
2026-04-17 10:07 53.36073 -2.27643 245 ft 4 kts 110°
2026-04-17 10:08 53.36030 -2.27621 245 ft 9 kts 183°
2026-04-17 10:08 53.35955 -2.27633 244 ft 13 kts 186°
2026-04-17 10:08 53.35852 -2.27651 243 ft 16 kts 186°
2026-04-17 10:08 53.35735 -2.27645 242 ft 17 kts 160°
2026-04-17 10:09 53.35632 -2.27536 242 ft 18 kts 130°
2026-04-17 10:09 53.35664 -2.27362 244 ft 17 kts 52°
2026-04-17 10:09 53.35738 -2.27212 246 ft 16 kts 49°
2026-04-17 10:09 53.35810 -2.27065 248 ft 16 kts 51°
2026-04-17 10:10 53.35868 -2.26906 250 ft 16 kts 52°
2026-04-17 10:10 53.35930 -2.26759 251 ft 15 kts 56°
2026-04-17 10:10 53.35995 -2.26623 253 ft 15 kts 51°
2026-04-17 10:11 53.36119 -2.26365 256 ft 14 kts 51°
2026-04-17 10:11 53.36123 -2.26229 257 ft 13 kts 135°
2026-04-17 10:11 53.36045 -2.26147 256 ft 13 kts 179°
2026-04-17 10:11 53.36003 -2.26196 256 ft 0 kts 232°
2026-04-17 10:12 53.35956 -2.26294 255 ft 35 kts 231°
2026-04-17 10:12 53.35665 -2.26896 247 ft 95 kts 231°
2026-04-17 10:12 53.35129 -2.27984 247 ft 143 kts 230°
2026-04-17 10:12 53.34522 -2.29264 858 ft 142 kts 229°
2026-04-17 10:13 53.33931 -2.30578 1824 ft 139 kts 228°
2026-04-17 10:13 53.33327 -2.31917 2623 ft 152 kts 229°
2026-04-17 10:13 53.32641 -2.33403 3166 ft 173 kts 231°
2026-04-17 10:13 53.32235 -2.35433 3720 ft 202 kts 267°
2026-04-17 10:14 53.32360 -2.37898 4461 ft 224 kts 269°
2026-04-17 10:14 53.32485 -2.40650 4925 ft 247 kts 270°
2026-04-17 10:14 53.32454 -2.43498 4963 ft 240 kts 255°
2026-04-17 10:14 53.32083 -2.46227 4995 ft 243 kts 253°
2026-04-17 10:15 53.31652 -2.48947 4986 ft 241 kts 251°
2026-04-17 10:15 53.31158 -2.51624 5134 ft 241 kts 250°
2026-04-17 10:15 53.30646 -2.54286 5743 ft 241 kts 249°
2026-04-17 10:15 53.30123 -2.57007 6669 ft 249 kts 250°
2026-04-17 10:16 53.29594 -2.59789 7592 ft 253 kts 250°
2026-04-17 10:16 53.29067 -2.62595 7927 ft 252 kts 250°
2026-04-17 10:16 53.28546 -2.65392 8027 ft 252 kts 250°
2026-04-17 10:16 53.28029 -2.68192 8037 ft 252 kts 250°
2026-04-17 10:17 53.27514 -2.70994 8034 ft 251 kts 250°
2026-04-17 10:17 53.26996 -2.73782 8035 ft 251 kts 250°
2026-04-17 10:17 53.26479 -2.76563 8031 ft 251 kts 250°
2026-04-17 10:17 53.25962 -2.79352 8034 ft 252 kts 251°
2026-04-17 10:18 53.25916 -2.82261 8093 ft 262 kts 283°
2026-04-17 10:18 53.26961 -2.84830 8012 ft 278 kts 312°
2026-04-17 10:18 53.28693 -2.86370 7965 ft 292 kts 340°
2026-04-17 10:18 53.30684 -2.86963 7980 ft 296 kts 347°
2026-04-17 10:19 53.32732 -2.87441 8003 ft 296 kts 347°
2026-04-17 10:19 53.34802 -2.87544 8040 ft 303 kts
2026-04-17 10:19 53.36897 -2.87117 8017 ft 303 kts
2026-04-17 10:19 53.38990 -2.86679 7985 ft 302 kts
2026-04-17 10:20 53.41078 -2.86240 7984 ft 302 kts
2026-04-17 10:20 53.43166 -2.85812 7985 ft 303 kts
2026-04-17 10:20 53.45266 -2.85392 8003 ft 303 kts
2026-04-17 10:20 53.47362 -2.84971 8024 ft 303 kts
2026-04-17 10:21 53.49453 -2.84533 8020 ft 302 kts
2026-04-17 10:21 53.51543 -2.84105 8032 ft 302 kts
2026-04-17 10:21 53.53631 -2.83691 8054 ft 303 kts
2026-04-17 10:21 53.55726 -2.83286 8066 ft 303 kts
2026-04-17 10:22 53.57825 -2.82878 8022 ft 303 kts
2026-04-17 10:22 53.59915 -2.82455 7832 ft 304 kts
2026-04-17 10:22 53.62015 -2.82015 7258 ft 303 kts
2026-04-17 10:22 53.64062 -2.81572 6666 ft 298 kts
2026-04-17 10:23 53.66106 -2.81119 6056 ft 294 kts
2026-04-17 10:23 53.68127 -2.80681 5415 ft 291 kts
2026-04-17 10:23 53.70124 -2.80262 4775 ft 288 kts
2026-04-17 10:23 53.72106 -2.79859 4099 ft 286 kts
2026-04-17 10:24 53.74079 -2.79453 3397 ft 286 kts
2026-04-17 10:24 53.76056 -2.79035 2678 ft 286 kts
2026-04-17 10:24 53.77961 -2.78187 2133 ft 281 kts 29°
2026-04-17 10:24 53.79343 -2.76069 1971 ft 260 kts 61°
2026-04-17 10:25 53.79871 -2.73378 1882 ft 226 kts 95°
2026-04-17 10:25 53.79507 -2.71088 1929 ft 180 kts 133°
2026-04-17 10:25 53.78636 -2.70138 2093 ft 131 kts 179°
2026-04-17 10:25 53.77817 -2.70685 2065 ft 136 kts 225°
2026-04-17 10:26 53.77381 -2.72107 1974 ft 137 kts 248°
2026-04-17 10:26 53.77124 -2.73635 1921 ft 134 kts 247°
2026-04-17 10:26 53.76838 -2.75138 1944 ft 135 kts 246°
2026-04-17 10:26 53.76547 -2.76635 1970 ft 134 kts 246°
2026-04-17 10:27 53.76249 -2.78121 1956 ft 135 kts 246°
2026-04-17 10:27 53.76196 -2.79746 1954 ft 136 kts 263°
2026-04-17 10:27 53.76201 -2.81311 1940 ft 133 kts 262°
2026-04-17 10:27 53.76230 -2.82884 1936 ft 134 kts 265°
2026-04-17 10:28 53.76283 -2.84439 1920 ft 134 kts 265°
2026-04-17 10:28 53.76331 -2.86003 1884 ft 133 kts 264°
2026-04-17 10:28 53.76403 -2.87571 1698 ft 133 kts 267°
2026-04-17 10:28 53.76481 -2.89124 1497 ft 133 kts 266°
2026-04-17 10:29 53.76557 -2.90663 1328 ft 131 kts 267°
2026-04-17 10:29 53.76638 -2.92206 1148 ft 131 kts 266°
2026-04-17 10:29 53.76715 -2.93745 958 ft 132 kts 266°
2026-04-17 10:29 53.76792 -2.95298 767 ft 134 kts 267°
2026-04-17 10:30 53.76870 -2.96917 603 ft 139 kts 268°
2026-04-17 10:30 53.76954 -2.98489 435 ft 131 kts 268°
2026-04-17 10:30 53.77028 -3.00024 224 ft 129 kts 266°
2026-04-17 10:30 53.77096 -3.01507 72 ft 125 kts 265°
2026-04-17 10:31 53.77155 -3.02866 39 ft 98 kts 274°
2026-04-17 10:31 53.77196 -3.03660 44 ft 31 kts 274°
2026-04-17 10:31 53.77249 -3.03921 43 ft 23 kts 307°
2026-04-17 10:31 53.77351 -3.04148 42 ft 24 kts 308°
2026-04-17 10:32 53.77431 -3.04326 43 ft 14 kts 310°
2026-04-17 10:32 53.77514 -3.04297 43 ft 14 kts 33°
2026-04-17 10:32 53.77602 -3.04236 43 ft 14 kts 358°
2026-04-17 10:32 53.77686 -3.04161 43 ft 11 kts 46°
2026-04-17 10:33 53.77730 -3.04143 43 ft 1 kts 351°
2026-04-17 10:33 53.77745 -3.04147 43 ft 4 kts 349°
2026-04-17 10:33 53.77755 -3.04151 40 ft 0 kts 349°